Overview Statistics Trail Chart Weather Telemetry Raw packets
 

This is the latest recevied weather packets stored in our database for station/object W5DNT. If no packets are shown the sender has not sent any weather packets the latest 10 day(s).

<< 26 27 28 29 30 31 32 >>
Time Temp. Humidity Pressure Rain* Wind** Luminosity Snow
1788024661 34.44° C 45% 1016.2 hPa 0 mm - - -
1788023764 34.44° C 47% 1016.4 hPa 0 mm - - -
1788022854 33.89° C 49% 1016.4 hPa 0 mm - - -
1788021951 33.89° C 48% 1016.5 hPa 0 mm - - -
1788021047 33.33° C 49% 1016.7 hPa 0 mm - - -
1788020147 32.78° C 55% 1016.8 hPa 0 mm - - -
1788019248 32.22° C 55% 1016.7 hPa 0 mm - - -
1788018340 31.67° C 55% 1016.7 hPa 0 mm - - -
1788017438 31.11° C 62% 1016.7 hPa 0 mm - - -
1788016530 30.56° C 69% 1016.7 hPa 0 mm - - -
1788015632 29.44° C 71% 1016.7 hPa 0 mm - - -
1788014723 28.33° C 71% 1016.8 hPa 0 mm - - -
1788013818 27.22° C 74% 1016.9 hPa 0 mm - - -
1788012917 26.11° C 75% 1016.8 hPa 0 mm - - -
1788012016 25.56° C 75% 1016.9 hPa 0 mm - - -
1788011114 24.44° C 76% 1016.8 hPa 0 mm - - -
1788010215 23.89° C 77% 1016.8 hPa 0 mm - - -
1788009313 22.78° C 77% 1016.8 hPa 0 mm - - -
1788008419 - - 1016.7 hPa 0 mm - - -
1788007506 - - 1016.7 hPa 0 mm - - -
1788006601 - - 1016.5 hPa 0 mm - - -
1788005762 - - 1016.4 hPa 0 mm - - -
1788004853 - - 1016.1 hPa 0 mm - - -
1788003951 21.11° C 74% 1016 hPa 0 mm - - -
1788003051 21.67° C 74% 1016 hPa 0 mm - - -

* Rain latest hour (hover to see other rain measurements)
** Current wind speed in m/s (hover to see current wind gust speed)